Location: *
(2.5500°S, 65.9667°W)
Time: 07:23:33
(UTC+00:00)

Tiros 1 despin weight - Pass Details

Date: 17 April 2024
Orbit: 578 x 621 km, 48.2° (Epoch: 27 May)

Event Time Altitude Azimuth Distance (km) Brightness Sun altitude
Rises 03:32:50 0° 315° (NW) 2,874 - -75.1°
Reaches altitude 10° 03:35:09 10° 312° (NW) 1,967 - -75.6°
Maximum altitude 03:39:38 61° 231° (SW) 690 - -76.5°
Drops below altitude 10° 03:44:04 10° 150° (SSE) 1,953 - -77.3°
Sets 03:46:23 0° 147° (SSE) 2,851 - -77.8°
